Simultaneous Nadir Overpasses (SNOs) Predictions

Prediction of SNOs between GOES-16 and METOP-B Satellite Orbit:

Table of predicted SNOs for the next 14.0 days since TLE Epoch: 6/2/2023
Index Date Time (GOES-16) GOES-16 Lat,Lon METOP-B Lat,Lon Distance(km) Time Diff (sec)
1 06/03/2023 14:33:38 -0.01, -75.20 0.10, -75.65 50.88 80
2 06/06/2023 02:31:58 0.02, -75.20 -0.01, -75.25 7.49 80
3 06/08/2023 14:27:31 -0.04, -75.22 -0.14, -74.84 43.91 80
4 06/10/2023 02:49:12 0.04, -75.22 -0.88, -79.44 479.74 80
5 06/11/2023 02:25:52 0.04, -75.23 0.24, -74.44 90.27 80
6 06/12/2023 14:47:23 -0.04, -75.26 0.77, -79.01 426.55 80
7 06/13/2023 14:24:04 -0.04, -75.27 -0.35, -74.02 144.04 80
8 06/15/2023 02:45:43 0.04, -75.29 -0.71, -78.61 377.98 80
9 06/16/2023 02:22:24 0.04, -75.31 0.42, -73.62 192.69 80
